Погода в Алексеевке

Погода в Алексеевке : погода сейчас, прогноз погоды и архив. Всё, что Вы хотите узнать о погоде в Алексеевке!

Поиск расширенной информации на нашем сайте:

Другие новости

Новости СМИ2

Главная страница сайта

Новости сайта

02.10.2013

Напоминаем, что на нашем новом сайте вы можете получить высокодетализированные прогнозы погоды по пунктам России, СНГ и мира (включающие важные для авиации метеовеличины, такие как направление и скорость ветра, видимость, явления погоды, количество и форма облачности, нижняя и верхняя граница облачности), а также ознакомиться с разнообразными материалами по авиационной метеорологии и подборкой полезных ссылок на эту тему.

Сайт Метеоцентр.Азия посвящён разработке технологий оптимизации авиаметеорологического обслуживания, включая проектирование и перспективное создание нескольких автоматизированных авиаметеорологических систем:
- система выпуска высокодетальных прогностических карт явлений погоды для нижнего воздушного пространства по России и ближнему зарубежью;
- система верификации прогнозов TAF (выпускаемых синоптиками официальных АМСГ РФ и ближнего зарубежья) и AUTOTAF (выпускаемых сайтом Метеоцентр.Азия) - выявление ошибок, онлайн-сопоставление с фактической погодой METAR, автоматическое внесение коррективов в прогнозы при резком отклонении фактической погоды от прогноза, подсчёт оправдываемости прогнозов по элементам и в целом;
- система обработки, анализа и отображения авиаметеорологической информации для применения провайдерами метеорологической информации.


Погода в Алексеевке - сегодня

Время (UTC), дата Ветер
(°,м/с) 
Видим.   Явления Облачность Т
(°С)
Тd
(°С)
f(%) Тe
(°С)
Pmin
(гПа)
dP
(гПа)
Po
(мм)
O2
(г/м3)
Тmin Tmax R s Состояние
почвы
21 17.01.17 тихо ()   н/о    ясно 
-21.1 -23.5 81 -21  1042.3  -1  742  326           
00 18.01.17 280 (З) н/о    ясно 
-22 -24.5 80 -22  1042.1  -0.4  742  327           
03 18.01.17 280 (З) 20000 м    ясно 
-22.2 -24.9 79 -23  1041.6  -0.5  742  327        12  равномерный
сухой снег
100% 
06 18.01.17 тихо ()   20000 м    ясно 
-12.6 -18 64 -13  1039.4  -0.2  742  315  -22.2         
09 18.01.17 тихо ()   20000 м    ясно 
-7.2 -14.6 55 -7  1037.2  -1.1  741  308           
12 18.01.17 тихо ()   20000 м    1/0 средняя 
[Ac lent]
-9.6 -14.2 69 -10  1037.2  -0.4  740  310           
15 18.01.17 тихо ()   н/о    ясно 
-17.4 -19.6 83 -17  1038.2  -0.6  740  320    -6.6       
18 18.01.17 280 (З) н/о    ясно 
-19.6 -21.9 82 -20  1037.6  -1  739  322    -6.6       
21 18.01.17 тихо ()   н/о  дымка  10/10 200 м 
[St]
-20.8 -22.5 86 -21  1036.4  -1.4  738  324           
00 19.01.17 тихо ()   н/о  в посл. час туман  8/8 300 м 
[St]
-21.6 -23.5 85 -22  1035.3  -1.2  737  324           
03 19.01.17 тихо ()   20000 м    4/0 верхняя 
[Ci]
-21.2 -23.5 82 -21  1034.6  -0.6  737  324        12  равномерный
сухой снег
100% 
06 19.01.17 тихо ()   20000 м    8/0 верхняя 
[Ci]
-16.2 -18.7 81 -16  1033.3  -0.2  737  317  -22.1         
09 19.01.17 180 (Ю) 20000 м    8/0 верхняя 
[Ci fib]
-14.6 -17.3 80 -19  1030.8  -2.1  735  314           
12 19.01.17 200 (Ю) 20000 м    9/0 верхняя 
[Ci sp]
-15.6 -18.3 80 -19  1030.9  -0.1  735  316           
15 19.01.17 200 (Ю) н/о    9/0 верхняя 
[Ci sp]
-15.8 -18.2 82 -20  1029.4  -1.4  734  315    -14.1       
18 19.01.17 200 (Ю) н/о    10/0 средняя 
[Ac As]
-11.8 -13.8 85 -14  1027  -1.5  733  310    -14.1       
21 19.01.17 190 (Ю) н/о    3/0 средняя 
[As trans]
-16 -17.9 85 -18  1025.9  -1.9  731  314           
00 20.01.17 210 (ЮЗ) н/о    ясно 
-16.8 -19 83 -19  1025  -1  731  315           
03 20.01.17 220 (ЮЗ) 20000 м    10/0 верхняя 
[Ci sp]
-19 -21.3 82 -24  1024.6  -0.8  730  318        12  равномерный
сухой снег
100% 
06 20.01.17 230 (ЮЗ) 20000 м  {снег}  6/0 средняя, верхняя 
[Ac As|Ci fib]
-16.6 -19 82 -20  1024.4  0.3  730  315  -19         
09 20.01.17 220 (ЮЗ) 20000 м  {снег}  4/0 верхняя 
[Ci fib]
-15.1 -18.5 75 -19  1022.7  -1.4  729  312           
12 20.01.17 230 (ЮЗ) 20000 м  {снег}  8/0 средняя 
[Ac As]
-18.3 -20.9 80 -24  1022.5  -0.8  729  316           
15 20.01.17 220 (ЮЗ) н/о    10/3 300 м средняя 
[St|Ac und]
-15.9 -18.4 81 -21  1020.5  -1.4  728  313    -14.1  0.3     
18 20.01.17 220 (ЮЗ) н/о  слаб. снег  10/0 средняя 
[As op]
-14.4 -17.1 80 -21  1018  -2.1  726  310    -14.1  0.3     
21 20.01.17 240 (ЮЗ) н/о  слаб. снег  8/0 средняя 
[As op]
-14.6 -17.4 79 -21  1016.8  -1.2  725  310           
Время (UTC), дата Ветер
(°,м/с) 
Видим.   Явления Облачность Т
(°С)
Тd
(°С)
f(%) Тe
(°С)
Pmin
(гПа)
dP
(гПа)
Po
(мм)
O2
(г/м3)
Тmin Tmax R s Состояние
почвы

Для получения пояснительной информации подведите курсор к названию столбца.

ПОГОДА в Алексеевке - архив

Всё, что Вы хотите узнать о погоде в Алексеевке - удобно и подробно!

Выберите нужную дату (начиная с 1 января 2015* года) и нажмите кнопку "Найти".
Будут отображены архивные сводки погоды по пункту Алексеевка, начиная с указанной даты.


Отображать данные в формате CSV (для использования в таблицах Excel)


Внимание! Наш архив погоды предназначен исключительно для личного некоммерческого использования в познавательных целях. Если Вам необходимы официальные справки о состоянии погоды (для производственных, юридических, коммерческих и т.п. целей), обращайтесь в органы Росгидромета.

*Примечание: данная дата относится к архиву по метеостанциям СССР (Россия, СНГ, Балтия).
Архив по метеостанциям Зарубежной Европы и Азии (кроме Китая) хранится 10 дней, по другим регионам земного шара (Китай, Африка, Америка, Австралия, Океания) - 1 день.

Алексеевка - район местоположения метеостанции


Название, широта, долгота, высота метеостанции:
Алексеевка 52°ш. 70.9°д. 384 м над ур. моря [Казахстан]

Дополнительная информация

В oтличие oт бoльшинства пoгoдных сайтoв мы публикуем пoдрoбную метеoинфoрмацию в детальнoм прoфессиoнальнoм фoрмате.

Характеристики температуры и влажнoсти вoздуха измеряются на высoте 2 м в тени вдали oт зданий и деревьев.
Скoрoсть ветра измеряется на высoте 10 м (на урoвне рoста челoвека скoрoсть ветра ниже в 1.5-2 раза). Если метеoстанция нахoдится в гoрoде или в лесу, тo скoрoсть ветра занижена на 2-4 м/с пo сравнению с oткрытым местoм. Скoрoсть ветра над акватoриями крупных рек и oзёр, а также на вершинах хoлмoв на 2-5 м/с выше, чем в oбычных услoвиях.
Атмoсфернoе давление в разных тoчках местнoсти мoжет значительнo oтличаться oт давления на метеoстанции, в зависимoсти oт услoвий рельефа (при пoдъёме на 10 м давление пoнижается примернo на 1 мм рт.ст.).